CST,Max TemperatureF,Mean TemperatureF,Min TemperatureF,Max Dew PointF,MeanDew PointF,Min DewpointF,Max Humidity, Mean Humidity, Min Humidity, Max Sea Level PressureIn, Mean Sea Level PressureIn, Min Sea Level PressureIn, Max VisibilityMiles, Mean VisibilityMiles, Min VisibilityMiles, Max Wind SpeedMPH, Mean Wind SpeedMPH, Max Gust SpeedMPH,PrecipitationIn, CloudCover, Events, WindDirDegrees
2014-1-1,59,52,45,50,45,38,84,75,59,30.32,30.22,30.06,10,10,10,8,5,,0.05,5,Rain,78
2014-1-2,59,48,36,55,47,21,88,79,52,30.24,29.98,29.89,10,10,5,28,8,33,0.14,7,Rain,24
2014-1-3,44,36,27,20,14,10,58,43,25,30.41,30.34,30.26,10,10,10,22,15,30,0.00,0,,24
2014-1-4,57,44,32,39,29,17,66,53,45,30.32,30.22,30.08,10,10,10,15,9,,0.00,7,Rain,68
2014-1-5,65,55,45,59,50,37,88,78,63,30.08,29.96,29.86,10,9,2,25,7,33,0.09,7,Rain,96
2014-1-6,53,39,24,48,23,-7,82,57,20,30.54,30.18,29.92,10,10,10,31,20,41,0.00,5,Rain,343
2014-1-7,33,26,18,8,2,-4,54,38,20,30.65,30.56,30.50,10,10,10,17,11,21,0.00,0,,7
2014-1-8,48,34,19,14,8,0,76,36,15,30.54,30.46,30.37,10,10,10,10,7,,0.00,2,,39
2014-1-9,51,46,40,48,39,12,88,74,29,30.39,30.32,30.23,10,7,2,10,6,,0.06,8,Rain,32
2014-1-10,65,58,50,64,56,46,100,92,86,30.22,30.08,29.97,10,3,0,12,6,,0.01,8,Fog-Rain,74
2014-1-11,69,62,51,66,61,26,100,89,29,30.09,29.90,29.81,10,5,0,34,11,54,0.54,6,Fog-Rain-Thunderstorm,226
2014-1-12,60,49,38,41,36,29,90,62,39,30.24,30.17,30.09,10,10,10,5,1,,0.00,0,Rain,212
2014-1-13,62,52,44,59,52,39,88,81,60,30.14,29.98,29.86,10,8,2,13,3,18,0.93,7,Rain-Thunderstorm,141
2014-1-14,65,56,47,59,45,23,88,64,20,30.09,29.96,29.84,10,10,8,20,9,24,0.01,3,Rain,311
2014-1-15,57,48,37,35,27,13,74,45,26,30.17,30.07,30.03,10,10,10,18,10,24,0.00,1,Rain,335
2014-1-16,53,38,27,34,18,3,73,43,17,30.24,30.16,30.11,10,10,10,12,7,,0.00,0,,311
2014-1-17,62,52,39,43,30,10,68,43,17,30.22,30.13,30.07,10,10,10,14,10,20,0.00,1,,287
2014-1-18,56,42,30,38,17,0,60,35,13,30.34,30.23,30.10,10,10,10,14,9,,0.00,0,,288
2014-1-19,63,52,39,48,39,23,82,60,22,30.20,30.13,30.07,10,10,3,18,7,30,0.14,3,Rain-Thunderstorm,291
2014-1-20,62,48,33,48,39,29,83,67,50,30.14,30.07,29.97,10,10,10,12,4,17,0.00,0,,282
2014-1-21,61,48,34,54,41,12,88,63,20,30.15,29.94,29.89,10,10,10,25,9,40,0.00,4,Rain,308
2014-1-22,49,38,27,26,13,0,71,41,14,30.24,30.19,30.14,10,10,10,14,9,,0.00,0,,330
2014-1-23,54,42,31,26,19,10,75,43,23,30.50,30.37,30.23,10,10,10,14,7,,0.00,2,,15
2014-1-24,41,37,33,19,6,-8,52,30,16,30.58,30.44,30.31,10,10,10,18,9,24,0.00,7,Rain,20
2014-1-25,55,45,35,45,32,18,77,63,45,30.29,30.17,30.01,10,10,10,13,4,23,0.00,6,Rain,309
2014-1-26,59,47,35,51,40,31,84,66,44,30.09,29.99,29.93,10,10,10,8,2,,0.00,3,Rain,135
2014-1-27,66,58,49,61,54,34,88,80,54,30.04,29.94,29.88,10,9,1,16,5,,0.28,7,Rain,348
2014-1-28,47,36,26,29,21,8,87,63,28,30.23,30.13,30.04,10,8,4,22,11,29,0.08,8,Rain-Snow,7
2014-1-29,26,24,21,19,17,14,83,73,64,30.38,30.31,30.22,10,8,6,14,9,21,0.00,5,Snow,8
2014-1-30,41,30,19,28,24,15,93,75,57,30.33,30.26,30.18,10,10,7,10,2,,0.12,1,,23
2014-1-31,54,40,27,42,32,23,93,78,35,30.22,30.17,30.09,10,6,0,9,6,,0.00,6,Fog,29